Regional Weather Roundup
Issued by NWS

Home | Current Version | Previous Version | Text Only | Print | Product List | Glossary On
Versions: 1 2 3 4 5 6 7 8 9 10 11 12 13 14 15 16 17 18 19 20 21 22 23 24 25 26 27 28 29 30 31 32 33 34 35 36 37 38 39 40 41 42 43 44 45 46 47 48 49 50
000
ASUS43 KDTX 281410
RWRMI
MICHIGAN HOURLY REGIONAL WEATHER ROUNDUP
NATIONAL WEATHER SERVICE DETROIT/PONTIAC MI
1000 AM EDT THU MAY 28 2015

NOTE: "FAIR" INDICATES FEW OR NO CLOUDS BELOW 12,000 FEET WITH NO
SIGNIFICANT WEATHER AND/OR OBSTRUCTION TO VISIBILITY.

MIZ047>049-052>055-059>063-066>070-074>076-081>083-281500-
SOUTHEAST LOWER MICHIGAN

CITY           SKY/WX    TMP DP  RH WIND       PRES   REMARKS
ADRIAN         SUNNY     68  56  65 SE8       30.25R
ALMA           SUNNY     69  58  68 SW9       30.23S
ANN ARBOR      SUNNY     70  56  61 VRB3      30.24R
BAD AXE        SUNNY     67  53  59 S6        30.23F
CARO           SUNNY     69  58  67 S3        30.22S
DETROIT CITY   SUNNY     71  54  54 CALM      30.25R
DETROIT        MOSUNNY   71  56  58 CALM      30.25R
FLINT          SUNNY     71  57  61 CALM      30.23F
GROSSE ILE     SUNNY     70  61  73 S6        30.24R
HILLSDALE      SUNNY     71  54  55 SE6       30.25R
HOWELL         SUNNY     69  59  68 CALM      30.24S

CITY           SKY/WX    TMP DP  RH WIND       PRES   REMARKS
JACKSON        SUNNY     70  55  59 SE7       30.24R
LAMBERTVILLE   SUNNY     70  55  60 SE9       30.25R
LANSING        SUNNY     70  55  59 S5        30.24S
LAPEER         FAIR      68  55  63 S3        30.24S
MASON          SUNNY     67  57  70 SE3       30.24S
MONROE         SUNNY     70  55  60 SE9       30.23R
MT. CLEMENS    SUNNY     67  56  67 VRB3      30.23R
PONTIAC        SUNNY     68  55  63 SE6       30.24R
PORT HOPE        N/A     68  53  58 VRB3      30.21F
PORT HURON     SUNNY     66  55  68 CALM      30.24S
TRI CITIES     CLOUDY    68  55  63 S8        30.23R
MIDLAND        FAIR      70  57  62 S8        30.21R
TROY           SUNNY     70  56  61 CALM      30.26R
SAGINAW HB     MOSUNNY   68  55  64 S7        30.22S
$$
MIZ043>046-050>051-056>058-064>065-071>073-077>080-281500-
SOUTHWEST LOWER MICHIGAN

CITY           SKY/WX    TMP DP  RH WIND       PRES   REMARKS
BATTLE CREEK   SUNNY     70  57  63 S5        30.24R
BENTON HARBOR  SUNNY     69  57  65 S5        30.23R
BIG RAPIDS     SUNNY     68  56  66 CALM      30.20F
COLDWATER      SUNNY     69  57  65 SE6       30.24S
FREMONT        FAIR      66  57  73 CALM      30.20S
HOLLAND        SUNNY     69  58  67 S6        30.23R
GRAND RAPIDS   MOSUNNY   70  56  61 SW3       30.23R
IONIA          FAIR      70  55  58 S3        30.22S
KALAMAZOO      SUNNY     69  57  65 S5        30.24R
LUDINGTON      SUNNY     71  61  71 E3        30.18F
MARSHALL       SUNNY     69  57  65 SE3       30.24R
MOUNT PLEASANT SUNNY     69  57  64 S8        30.21S
MUSKEGON       SUNNY     68  55  63 SW7       30.21R
SOUTH HAVEN    SUNNY     71  57  61 S5        30.22R
$$
MIZ016>042-281500-
NORTHERN LOWER MICHIGAN

CITY           SKY/WX    TMP DP  RH WIND       PRES   REMARKS
ALPENA         SUNNY     69  55  60 VRB3      30.20F
BEAVER ISLAND  SUNNY     58  50  76 W5        30.20R
BELLAIRE       SUNNY     66  55  68 SW3       30.19S
CADILLAC       SUNNY     67  59  74 SW3       30.19F
FRANKFORT      SUNNY     65  52  62 W6        30.18F
GAYLORD        SUNNY     66  57  72 W3        30.20S
GRAYLING       SUNNY     68  56  64 CALM      30.20F
HARBOR SPRINGS SUNNY     56  53  89 SW5       30.20R
HOUGHTON LAKE  SUNNY     65  56  72 SW5       30.21S
MANISTEE       SUNNY     64  55  72 CALM      30.19F
OSCODA         SUNNY     70  57  64 S5        30.20F
PELLSTON       SUNNY     64  55  72 VRB6      30.19S
ROGERS CITY    SUNNY     59  55  87 N3        30.21F
TRAVERSE CITY  SUNNY     69  57  65 W6        30.17S
$$
MIZ007>008-015-281500-
EASTERN UPPER MICHIGAN

CITY           SKY/WX    TMP DP  RH WIND       PRES   REMARKS
KINROSS        CLOUDY    59  55  88 CALM      30.20R
MACKINAC ISLAN SUNNY     58  54  87 CALM      30.19S
NEWBERRY       FOG       52  52  99 N6        30.19S VSB 1/2
S. S. MARIE    SUNNY     61  54  77 VRB3      30.19R
MUNISING         N/A     46  44  93 NE3       30.19S
$$
MIZ004>006-011>014-085-281500-
CENTRAL UPPER MICHIGAN

CITY           SKY/WX    TMP DP  RH WIND       PRES   REMARKS
MANISTIQUE     CLOUDY    54  53  96 CALM      30.18S
ESCANABA       SUNNY     59  52  77 NE5       30.16F
MENOMINEE      SUNNY     61  54  77 E6        30.15
SAWYER-GWINN   PTSUNNY   46  46 100 CALM      30.19S
$$
MIZ001>003-009>011-084-281500-
WESTERN UPPER MICHIGAN

CITY           SKY/WX    TMP DP  RH WIND       PRES   REMARKS
IRON MOUNTAIN  PTSUNNY   59  55  87 SE5       30.15S
HOUGHTON       FOG       44  43  96 E13       30.17F VSB 1/4
COPPER HARBOR    N/A     47  43  86 S10G17    30.19F
IRONWOOD       SUNNY     63  57  82 CALM      30.08S
$$

ABBREVIATIONS USED IN REMARKS
   TC - TEMPERATURE IN CELSIUS
  WCI - WIND CHILL INDEX
   HX - HEAT INDEX
  VSB - VISIBILITY




USA.gov is the U.S. government's official web portal to all federal, state and local government web resources and services.